Baker City, OR

10:39 PM PDT on September 28, 2016 (GMT -0700)
Baker City Municipal

Weather History for KBKE - May, 2014

Change the Weather History Date:

Monday, May 5, 2014

  Actual Average Record
Temperature  
Mean Temperature 44 °F 48 °F  
Max Temperature 55 °F 63 °F 89 °F (1966)
Min Temperature 33 °F 33 °F 21 °F (1982)
Degree Days  
Heating Degree Days 21 17  
Month to date heating degree days 62 87  
Since 1 July heating degree days 6987 7100  
Cooling Degree Days 0 0  
Month to date cooling degree days 0 0  
Year to date cooling degree days 0 0  
Moisture  
Dew Point 36 °F    
Average Humidity 70    
Maximum Humidity 92    
Minimum Humidity 48    
Precipitation  
Precipitation T in 0.05 in 0.84 in (1983)
Month to date precipitation T 0.21  
Year to date precipitation 3.27 3.26  
Sea Level Pressure  
Sea Level Pressure 29.92 in    
Wind  
Wind Speed 8 mph (WNW)    
Max Wind Speed 24 mph    
Max Gust Speed 29 mph    
Visibility 10 miles    
Events Rain    
T = Trace of Precipitation, MM = Missing Value Source: NWS Daily Summary

Daily Weather History Graph

Daily Weather History Graph

Search for Another Location

Airport or City:

Trip Planner

Search our weather history database for the weather conditions in past years. The results will help you decide how hot, cold, wet, or windy it might be!

Date:

Astronomy

May. 05, 2014 Rise Set
Actual Time 5:35 AM PDT 8:01 PM PDT
Civil Twilight 5:02 AM PDT 8:34 PM PDT
Nautical Twilight 4:21 AM PDT 9:15 PM PDT
Astronomical Twilight 3:35 AM PDT 10:01 PM PDT
Moon 11:00 AM PDT (5/5) 12:47 AM PDT (5/5)
Length of Visible Light 15h 32m
Length of Day
14h 26m
Waxing Crescent, 37% of the Moon is Illuminated
May 5
Waxing Crescent
May 6
First Quarter
May 14
Full
May 21
Last Quarter
May 28
New

Hourly Weather History & Observations

Time (PDT) Temp. Windchill Dew Point Humidity Pressure Visibility Wind Dir Wind Speed Gust Speed Precip Events Conditions
12:53 AM 41.0 °F 36.4 °F 37.0 °F 86% 29.88 in 10.0 mi WNW 6.9 mph - N/A   Partly Cloudy
1:53 AM 42.1 °F 37.1 °F 37.0 °F 82% 29.90 in 10.0 mi SW 8.1 mph - N/A   Mostly Cloudy
2:53 AM 42.1 °F 38.4 °F 37.0 °F 82% 29.90 in 10.0 mi SSW 5.8 mph - N/A   Overcast
3:53 AM 42.1 °F 40.2 °F 37.0 °F 82% 29.91 in 10.0 mi SW 3.5 mph - N/A   Mostly Cloudy
4:53 AM 43.0 °F - 36.0 °F 76% 29.91 in 10.0 mi Calm Calm - N/A   Overcast
5:53 AM 39.9 °F 37.8 °F 37.0 °F 89% 29.92 in 10.0 mi SSE 3.5 mph - N/A   Overcast
6:53 AM 43.0 °F - 37.9 °F 82% 29.93 in 10.0 mi Calm Calm - N/A   Partly Cloudy
7:53 AM 46.0 °F 44.8 °F 39.0 °F 76% 29.93 in 10.0 mi ENE 3.5 mph - N/A   Scattered Clouds
8:53 AM 51.1 °F - 37.0 °F 59% 29.92 in 10.0 mi Variable 5.8 mph - N/A   Mostly Cloudy
9:53 AM 52.0 °F - 32.0 °F 47% 29.92 in 10.0 mi Calm Calm - N/A   Mostly Cloudy
10:53 AM 48.2 °F - 37.4 °F 66% 29.93 in 10.0 mi NW 12.7 mph - N/A Rain Light Rain
11:53 AM 52.0 °F - 35.1 °F 53% 29.93 in 10.0 mi NNW 10.4 mph 18.4 mph 0.00 in   Mostly Cloudy
12:53 PM 51.1 °F - 36.0 °F 56% 29.93 in 10.0 mi NNW 5.8 mph - N/A   Mostly Cloudy
1:53 PM 48.9 °F - 36.0 °F 61% 29.93 in 10.0 mi NW 19.6 mph 25.3 mph 0.00 in Rain Light Rain
2:01 PM 48.0 °F - 37.9 °F 68% 29.92 in 10.0 mi NW 23.0 mph 28.8 mph 0.00 in Rain Light Rain
2:53 PM 48.0 °F - 37.9 °F 68% 29.94 in 10.0 mi NW 17.3 mph - 0.00 in Rain Light Rain
3:53 PM 50.0 °F - 34.0 °F 54% 29.93 in 10.0 mi NW 18.4 mph - 0.00 in   Overcast
4:53 PM 48.9 °F - 35.1 °F 59% 29.93 in 10.0 mi NW 20.7 mph 27.6 mph 0.00 in   Overcast
5:53 PM 51.1 °F - 34.0 °F 52% 29.92 in 10.0 mi NW 13.8 mph - N/A   Overcast
6:53 PM 50.0 °F - 34.0 °F 54% 29.92 in 10.0 mi NW 12.7 mph - N/A   Scattered Clouds
7:53 PM 45.0 °F 40.6 °F 34.0 °F 65% 29.93 in 10.0 mi WNW 8.1 mph - N/A   Clear
8:53 PM 41.0 °F 38.0 °F 35.6 °F 81% 29.93 in 10.0 mi West 4.6 mph - N/A   Clear
10:53 PM 37.4 °F 34.9 °F 32.0 °F 81% 29.93 in 10.0 mi Variable 3.5 mph - N/A   Clear
11:53 PM 34.0 °F 29.8 °F 30.0 °F 85% 29.94 in 10.0 mi West 4.6 mph - N/A   Clear